When you browse on this site, cookies collect data to enhance your experience and personalize the content and advertising you see.
Visit our Privacy Policy to learn more. By continuing to use the site, you agree to this use of cookies and data.
  • In Latvia
  • List of Countries
  • For 7 days
  • Water Temperature
  • Weather Map
  • Weather Widgets
  • user-avatar
    Login

    Hourly Weather Malaya Sopka

    Today, 26 August, Monday

    Time Temperature Precipitation Wind Pressure Humidity
    00:00 +26°C° 0 mm 6 mps 761 mmHg 37%
    01:00 +24°C° 0 mm 6 mps 762 mmHg 39%
    02:00 +25°C° 0 mm 5 mps 762 mmHg 40%
    03:00 +23°C° 0 mm 5 mps 762 mmHg 42%
    04:00 +23°C° 0 mm 5 mps 762 mmHg 47%
    05:00 +22°C° 0 mm 5 mps 762 mmHg 53%
    06:00 +21°C° 0 mm 5 mps 763 mmHg 58%
    07:00 +22°C° 0 mm 5 mps 763 mmHg 54%
    08:00 +24°C° 0 mm 6 mps 763 mmHg 50%
    09:00 +26°C° 0 mm 6 mps 764 mmHg 46%
    10:00 +28°C° 0 mm 6 mps 763 mmHg 42%
    11:00 +29°C° 0 mm 6 mps 763 mmHg 37%
    12:00 +32°C° 0 mm 5 mps 763 mmHg 33%
    13:00 +32°C° 0 mm 5 mps 763 mmHg 32%
    14:00 +33°C° 0 mm 5 mps 763 mmHg 30%
    15:00 +33°C° 0 mm 5 mps 763 mmHg 29%
    16:00 +32°C° 0 mm 5 mps 762 mmHg 31%
    17:00 +32°C° 0 mm 5 mps 762 mmHg 32%
    18:00 +30°C° 0 mm 5 mps 762 mmHg 33%
    19:00 +28°C° 0 mm 5 mps 762 mmHg 35%
    20:00 +27°C° 0 mm 5 mps 762 mmHg 36%
    21:00 +25°C° 0 mm 5 mps 762 mmHg 37%
    22:00 +23°C° 0 mm 4 mps 762 mmHg 38%
    23:00 +23°C° 0 mm 4 mps 762 mmHg 38%

    Tomorrow, 27 August, Tuesday

    Time Temperature Precipitation Wind Pressure Humidity
    00:00 +22°C° 0 mm 4 mps 762 mmHg 39%
    01:00 +21°C° 0 mm 4 mps 762 mmHg 39%
    02:00 +21°C° 0 mm 4 mps 762 mmHg 40%
    03:00 +20°C° 0 mm 3 mps 762 mmHg 41%
    04:00 +20°C° 0 mm 3 mps 762 mmHg 42%
    05:00 +19°C° 0 mm 3 mps 762 mmHg 44%
    06:00 +19°C° 0 mm 4 mps 761 mmHg 46%
    07:00 +21°C° 0 mm 4 mps 761 mmHg 41%
    08:00 +23°C° 0 mm 4 mps 761 mmHg 37%
    09:00 +27°C° 0 mm 4 mps 761 mmHg 33%
    10:00 +28°C° 0 mm 4 mps 761 mmHg 31%
    11:00 +29°C° 0 mm 4 mps 761 mmHg 29%
    12:00 +32°C° 0 mm 4 mps 760 mmHg 26%
    13:00 +32°C° 0 mm 4 mps 760 mmHg 25%
    14:00 +32°C° 0 mm 4 mps 760 mmHg 23%
    15:00 +33°C° 0 mm 4 mps 759 mmHg 22%
    16:00 +32°C° 0 mm 4 mps 759 mmHg 23%
    17:00 +30°C° 0 mm 5 mps 759 mmHg 24%
    18:00 +29°C° 0 mm 5 mps 759 mmHg 25%
    19:00 +27°C° 0 mm 5 mps 759 mmHg 30%
    20:00 +25°C° 0 mm 5 mps 759 mmHg 35%
    21:00 +22°C° 0 mm 4 mps 760 mmHg 39%
    22:00 +21°C° 0 mm 4 mps 760 mmHg 42%
    23:00 +21°C° 0 mm 3 mps 760 mmHg 44%

    Day after tomorrow, 28 August, Wednesday

    Time Temperature Precipitation Wind Pressure Humidity
    00:00 +20°C° 0 mm 3 mps 760 mmHg 46%
    01:00 +19°C° 0 mm 3 mps 760 mmHg 48%
    02:00 +19°C° 0 mm 3 mps 760 mmHg 51%
    03:00 +19°C° 0 mm 3 mps 760 mmHg 54%
    04:00 +18°C° 0 mm 3 mps 760 mmHg 59%
    05:00 +18°C° 0 mm 3 mps 760 mmHg 64%
    06:00 +18°C° 0 mm 3 mps 760 mmHg 69%
    07:00 +20°C° 0 mm 3 mps 760 mmHg 64%
    08:00 +22°C° 0 mm 4 mps 760 mmHg 58%
    09:00 +25°C° 0 mm 4 mps 760 mmHg 53%
    10:00 +26°C° 0 mm 4 mps 760 mmHg 48%
    11:00 +27°C° 0 mm 5 mps 760 mmHg 44%
    12:00 +28°C° 0 mm 5 mps 759 mmHg 39%
    13:00 +28°C° 0 mm 5 mps 759 mmHg 37%
    14:00 +28°C° 0 mm 5 mps 759 mmHg 35%
    15:00 +28°C° 0 mm 6 mps 759 mmHg 33%
    16:00 +28°C° 0 mm 6 mps 759 mmHg 34%
    17:00 +27°C° 0 mm 6 mps 759 mmHg 35%
    18:00 +26°C° 0 mm 6 mps 759 mmHg 36%
    19:00 +23°C° 0 mm 5 mps 760 mmHg 39%
    20:00 +21°C° 0 mm 5 mps 760 mmHg 42%
    21:00 +20°C° 0 mm 5 mps 761 mmHg 46%
    22:00 +19°C° 0 mm 5 mps 761 mmHg 44%
    23:00 +17°C° 0 mm 5 mps 761 mmHg 42%

    29 August, Thursday

    Time Temperature Precipitation Wind Pressure Humidity
    00:00 +16°C° 0 mm 5 mps 762 mmHg 40%
    01:00 +15°C° 0 mm 5 mps 762 mmHg 43%
    02:00 +14°C° 0 mm 4 mps 762 mmHg 46%
    03:00 +13°C° 0 mm 4 mps 762 mmHg 49%
    04:00 +12°C° 0 mm 4 mps 763 mmHg 52%
    05:00 +11°C° 0 mm 4 mps 763 mmHg 56%
    06:00 +10°C° 0 mm 4 mps 763 mmHg 59%
    07:00 +12°C° 0 mm 4 mps 763 mmHg 54%
    08:00 +14°C° 0 mm 5 mps 763 mmHg 49%
    09:00 +15°C° 0 mm 5 mps 763 mmHg 44%
    10:00 +17°C° 0 mm 5 mps 763 mmHg 40%
    11:00 +19°C° 0 mm 5 mps 763 mmHg 36%
    12:00 +21°C° 0 mm 6 mps 763 mmHg 32%
    13:00 +21°C° 0 mm 6 mps 763 mmHg 31%
    14:00 +22°C° 0 mm 6 mps 762 mmHg 29%
    15:00 +23°C° 0 mm 6 mps 762 mmHg 27%
    16:00 +22°C° 0 mm 5 mps 762 mmHg 28%
    17:00 +22°C° 0 mm 5 mps 762 mmHg 28%
    18:00 +21°C° 0 mm 5 mps 762 mmHg 29%
    19:00 +20°C° 0 mm 5 mps 762 mmHg 31%
    20:00 +18°C° 0 mm 4 mps 762 mmHg 34%
    21:00 +17°C° 0 mm 4 mps 762 mmHg 37%
    22:00 +15°C° 0 mm 4 mps 762 mmHg 39%
    23:00 +15°C° 0 mm 4 mps 762 mmHg 40%

    30 August, Friday

    Time Temperature Precipitation Wind Pressure Humidity
    00:00 +14°C° 0 mm 4 mps 762 mmHg 42%
    01:00 +14°C° 0 mm 4 mps 762 mmHg 45%
    02:00 +13°C° 0 mm 4 mps 762 mmHg 48%
    03:00 +13°C° 0 mm 4 mps 762 mmHg 51%
    04:00 +12°C° 0 mm 4 mps 762 mmHg 53%
    05:00 +12°C° 0 mm 4 mps 762 mmHg 55%
    06:00 +11°C° 0 mm 4 mps 762 mmHg 57%
    07:00 +13°C° 0 mm 4 mps 762 mmHg 50%
    08:00 +15°C° 0 mm 5 mps 762 mmHg 44%
    09:00 +17°C° 0 mm 6 mps 762 mmHg 38%
    10:00 +19°C° 0 mm 6 mps 762 mmHg 34%
    11:00 +20°C° 0 mm 6 mps 762 mmHg 30%
    12:00 +22°C° 0 mm 6 mps 762 mmHg 27%
    13:00 +22°C° 0 mm 6 mps 762 mmHg 26%
    14:00 +23°C° 0 mm 6 mps 762 mmHg 24%
    15:00 +23°C° 0 mm 6 mps 762 mmHg 23%
    16:00 +23°C° 0 mm 5 mps 761 mmHg 23%
    17:00 +22°C° 0 mm 5 mps 761 mmHg 24%
    18:00 +22°C° 0 mm 5 mps 761 mmHg 24%
    19:00 +20°C° 0 mm 4 mps 762 mmHg 26%
    20:00 +18°C° 0 mm 4 mps 762 mmHg 29%
    21:00 +16°C° 0 mm 3 mps 762 mmHg 31%
    22:00 +14°C° 0 mm 3 mps 762 mmHg 32%
    23:00 +14°C° 0 mm 4 mps 762 mmHg 33%

    31 August, Saturday

    Time Temperature Precipitation Wind Pressure Humidity
    00:00 +13°C° 0 mm 4 mps 763 mmHg 34%
    01:00 +13°C° 0 mm 4 mps 763 mmHg 37%
    02:00 +12°C° 0 mm 4 mps 763 mmHg 39%
    03:00 +12°C° 0 mm 4 mps 763 mmHg 41%
    04:00 +11°C° 0 mm 4 mps 763 mmHg 44%
    05:00 +11°C° 0 mm 4 mps 763 mmHg 46%
    06:00 +11°C° 0 mm 4 mps 763 mmHg 48%
    07:00 +13°C° 0 mm 4 mps 763 mmHg 44%
    08:00 +15°C° 0 mm 5 mps 764 mmHg 40%
    09:00 +19°C° 0 mm 5 mps 764 mmHg 36%
    10:00 +20°C° 0 mm 5 mps 764 mmHg 32%
    11:00 +22°C° 0 mm 5 mps 764 mmHg 28%
    12:00 +23°C° 0 mm 5 mps 764 mmHg 24%
    13:00 +25°C° 0 mm 5 mps 763 mmHg 23%
    14:00 +25°C° 0 mm 5 mps 763 mmHg 22%
    15:00 +26°C° 0 mm 5 mps 763 mmHg 21%
    16:00 +25°C° 0 mm 5 mps 763 mmHg 22%
    17:00 +23°C° 0 mm 5 mps 763 mmHg 23%
    18:00 +23°C° 0 mm 5 mps 763 mmHg 24%
    19:00 +21°C° 0 mm 4 mps 763 mmHg 27%
    20:00 +19°C° 0 mm 4 mps 763 mmHg 30%
    21:00 +17°C° 0 mm 3 mps 764 mmHg 33%
    22:00 +16°C° 0 mm 3 mps 764 mmHg 34%
    23:00 +16°C° 0 mm 3 mps 764 mmHg 35%
    Show more